Location: Bonningues
(50.7927°N, 2.0150°E)
Time: 03:19:49
(UTC+00:00)

Meteor 1-11 Rocket - Pass Details

Date: 08 August 2020
Orbit: 832 x 915 km, 81.2° (Epoch: 25 September)

Event Time Altitude Azimuth Distance (km) Brightness Sun altitude
Exits shadow 22:09:15 32° 126° (SE) 1,441 4.4 -19.3°
Maximum altitude 22:10:50 38° 91° (E) 1,289 4.4 -19.4°
Drops below altitude 10° 22:16:06 10° 25° (NNE) 2,538 6.7 -19.8°
Sets 22:18:43 0° 18° (NNE) 3,494 7.6 -20.0°
